星链-5684 (STARLINK-5684 )

导读

STARLINK-5684是美国SpaceX公司于2023年2月2日发射的星链系列低轨互联网卫星,归属星链第一代星座,运行在近地轨道。它配备相控阵天线与氪离子霍尔推进器,具备自主轨道规避能力,可提供高速卫星互联网接入服务,助力星链完成全球覆盖,为偏远地区及移动场景提供宽带连接,是星链大规模组网中的一员。

Basic Information
目录编号:
55453
目录名称:
STARLINK-5684
国际标识:
2023-015E
轨道中心:
EARTH
卫星名称:
星链-5684
卫星全名:
星链-5684 (STARLINK-5684 )
卫星状态:
在轨 (已飞行1229 天)
发射日期:
2023-02-02 UTC
国别 :
美国 (US)
星等 :
--
Orbit Information
数据来源 国际轨道数据 AOE轨道数据
星历时间 2026-06-14T23:42:36+0800
12小时前
查看轨道信息
2026-06-14T12:00:00+0800
1天前
查看轨道信息
半长轴 6861.204km 6861.2km
偏心率 0.0000785 0.0002051
轨道倾角 43.002° 43.004°
近地点辐角 272.692° 267.254°
升交点赤经 140.939° 143.701°
平近点角 87.384° 286.493°
近地点 482.528km 481.655km
远地点 483.606km 484.471km
周期 94.267分钟 94.267分钟
每日圈数 15.275743 15.275755
Detailed Information
固有亮度:
5
最大亮度:
2.5
卫星平台:
Starlink v1.5
覆盖范围:
全球
运营商:
太空探索技术公司
运营商所在国:
美国
制造商(研发单位):
太空探索技术公司
制造商所在国:
美国
使用方式:
暂无
Satellite Introduction
星链(Starlink)计划是由太空探索技术公司(SpaceX)提出的一个巨型低轨卫星互联网星座项目,计划在2019年至2024年间在太空搭建由约1.2万颗卫星组成的“星链”网络,其中1584颗将部署在地球上空550千米处的近地轨道,并从2020年开始工作。该卫星仍在工作。
2D Orbit Map
3D Orbit Map
Orbit Altitude Analysis Chart
Orbit Inclination Analysis Chart
Orbit Comprehensive Analysis Chart
View Comprehensive Chart